Location: Izdebno
(52.6670°N, 16.2170°E)
Time: 09:22:16
(UTC+01:00)

Vanguard 2 - Pass Details

Date: 27 September 2023
Orbit: 552 x 2923 km, 32.9° (Epoch: 07 December)

Event Time Altitude Azimuth Distance (km) Brightness Sun altitude
Rises 22:52:23 0° 251° (WSW) 5,649 12.1 -33.9°
Reaches altitude 10° 22:57:56 10° 237° (WSW) 4,155 11.2 -34.4°
Enters shadow 23:01:02 15° 223° (SW) 3,427 10.7 -34.6°
